Погода в Броквилле

Канада     44°35′25″N   75°41′04″W
темп.,
°C
ветер,
м/с
пор.,
м/с
влажн.,
%
обл.,
%
осадки,
мм/ч
давл.,
гПа
погр.,
м
22 апреля, чт
чт2223:00−2сз41074100 0.0 1010372
02:00−3сз4107298 0.0 1009520
05:00−3зсз497298 0.0 1009636
08:00−1з4965100 0.0 10091385
11:00+2зсз61049100 0.0 10092186
14:00+6зсз61136100 0.0 10072891
17:00+8зсз51137100 0.0 10063193
20:00+3сз4115291 0.0 1008341
23 апреля, пт
пт2323:00+2з612706 0.0 1010650
02:000зюз5147630 0.0 1011489
05:00−1з51478100 0.0 1012433
08:00+2з512686 0.0 1013558
11:00+9з69465 0.0 10121415
14:00+13зюз6103884 0.0 10102377
17:00+13юз5105288 0.0 10091489
20:00+9юз41169100 0.0 1011230
24 апреля, сб
сб2423:00+7зюз412695 0.0 1013368
02:00+4юз410845 0.0 1013230
05:00+4юз398887 0.0 1014245
08:00+6юз35775 0.0 1016256
11:00+13зюз46545 0.0 10151148
14:00+14юз565191 0.0 10141470
17:00+14юз4551100 0.0 10131053
20:00+9ю2268100 0.0 101212
25 апреля, вс
вс2523:00+9юв2372100 0.1 101160
02:00+8юв3896100 1.7 1008298
05:00+8ююв31096100 2.9 1005411
08:00+9ююз41097100 7.3 1004714
11:00+8зюз3697100 2.3 1004316
14:00+9юз479433 2.8 1004562
17:00+10з6108581 1.8 1005826
20:00+6сз61187100 2.5 1009801
26 апреля, пн
пн2623:00+4сз5108196 0.0 1012872
02:00+1сз4108421 0.0 1013754
05:000сз511825 0.0 1016715
08:00+2сз597080 0.0 1018865
11:00+7сз575740 0.0 10191128
14:00+11сз574914 0.0 10181451
17:00+13сз464716 0.0 10181679
20:00+6юз35805 0.0 101993